Regional Weather Roundup
Issued by NWS Upton, NY

Current Version | Previous Version | Graphics & Text | Print | Product List | Glossary Off
Versions: 1 2 3 4 5 6 7 8 9 10 11 12 13 14 15 16 17 18 19 20 21 22 23 24 25 26 27 28 29 30 31 32 33 34 35 36 37 38 39 40 41 42 43 44 45 46 47 48 49 50

000
ASUS41 KOKX 201605
RWROKX

REGIONAL WEATHER ROUNDUP
NATIONAL WEATHER SERVICE NEW YORK NY
1200 PM EDT WED AUG 20 2014

NOTE: "FAIR" INDICATES FEW OR NO CLOUDS BELOW 12,000 FEET WITH NO
SIGNIFICANT WEATHER AND/OR OBSTRUCTIONS TO VISIBILITY.

NYZ071-072-176-178-NJZ106-104-201700-
NEW YORK CITY METRO AREA


CITY           SKY/WX    TMP DP  RH WIND       PRES   REMARKS
CENTRAL PARK   MOSUNNY   81  60  48 VRB3      30.03F
LAGUARDIA APRT MOSUNNY   82  60  47 NE6       30.00S
KENNEDY INTL   PTSUNNY   78  60  53 S7        30.03R
NEWARK/LIBERTY PTSUNNY   80  58  46 VRB5      30.00F
BRNX BOT. GARD   N/A     81  59  47 S3        30.03S
TETERBORO      MOSUNNY   81  60  48 S6        29.99F
$$

NYZ177-179-078>081-201700-
LONG ISLAND NEW YORK

CITY           SKY/WX    TMP DP  RH WIND       PRES   REMARKS
FARMINGDALE    SUNNY     76  59  55 CALM      30.02R
ISLIP          MOSUNNY   78  60  53 E5        29.99F
SHIRLEY        MOSUNNY   78  61  55 SW5       30.02S
WESTHAMPTON    SUNNY     78  60  53 SE6       30.03S
MONTAUK POINT    N/A     71  63  75 NW3       30.03F
$$

NYZ052-065-067-201700-
HUDSON VALLEY

CITY           SKY/WX    TMP DP  RH WIND       PRES   REMARKS
WHITE PLAINS   MOSUNNY   79  63  57 SE7       30.02S
NEWBURGH       MOSUNNY   79  66  65 SW7       30.02S
MONTGOMERY     SUNNY     80  63  55 SW8       30.00F
POUGHKEEPSIE   MOSUNNY   80  62  54 VRB6      29.99S
ALBANY         PTSUNNY   76  64  66 VRB7      30.00S
$$

NJZ001-105-106-008-010-013-015-019>022-104-201700-
NEW JERSEY

CITY           SKY/WX    TMP DP  RH WIND       PRES   REMARKS
NEWARK/LIBERTY PTSUNNY   80  58  46 VRB5      30.00F
TETERBORO      MOSUNNY   81  60  48 S6        29.99F
CALDWELL       MOSUNNY   79  61  53 VRB5      30.01F
MORRISTOWN     MOSUNNY   81  61  50 S6        30.01F
SOMERVILLE     MOSUNNY   81  62  52 CALM      30.00S
LINDEN         FAIR      84  56  38 CALM      30.02F
SUSSEX         SUNNY     83  63  50 SE7       30.00F
ANDOVER          N/A     78  62  57 SW8       30.02S
TRENTON        CLOUDY    80  58  46 SW8       30.01F
MILLVILLE      CLOUDY    80  62  54 S5        30.01F
ATLANTIC CITY  SUNNY     79  63  57 SE8       30.01S
WRIGHTSTOWN    MOSUNNY   80  61  52 VRB3      29.99F
TOMS RIVER     SUNNY     79  55  44 SE5       30.01F
BELMAR         PTSUNNY   77  61  57 E3        30.02F
$$

PAZ047>061-062-071-201700-
EASTERN PENNSYLVANIA

CITY           SKY/WX    TMP DP  RH WIND       PRES   REMARKS
PHILADELPHIA   PTSUNNY   81  60  48 SE3       30.01S
ALLENTOWN      MOSUNNY   79  62  56 CALM      30.01S
SCRANTON       CLOUDY    78  64  61 S6        30.00S
$$

CTZ002-004>006-009-010-012-RIZ004-006-007-MAZ004-011-015-201700-
SOUTHERN NEW ENGLAND
 IN CT

CITY           SKY/WX    TMP DP  RH WIND       PRES   REMARKS
BRADLEY INTL   MOSUNNY   78  59  51 S8        30.01S
HARTFORD       SUNNY     75  62  64 SE5       30.01F
DANBURY        PTSUNNY   77  62  59 W6        30.03S
WTRBRY/OXFORD  NOT AVBL
BRIDGEPORT     SUNNY     73  66  78 E7        30.02S
MERIDEN        SUNNY     76  61  59 S5        30.02S
NEW HAVEN      MOSUNNY   75  65  70 SE3       30.03S
CHESTER        FAIR      79  61  53 CALM      30.03F
GROTON         SUNNY     72  64  76 S9        30.01S
WILLIMANTIC    SUNNY     78  57  48 CALM      30.02S

 IN RI

CITY           SKY/WX    TMP DP  RH WIND       PRES   REMARKS
PROVIDENCE     MOSUNNY   78  56  46 NE5       30.02S
BLOCK ISLAND   SUNNY     73  55  53 NE3       30.03S
WESTERLY       MOSUNNY   77  63  61 S8        30.02F

 IN MA

CITY           SKY/WX    TMP DP  RH WIND       PRES   REMARKS
BOSTON         MOSUNNY   72  59  63 E7        30.03S
WORCESTER      SUNNY     75  56  51 VRB5      30.05R
WESTFIELD      SUNNY     77  61  57 CALM      30.01F
PROVINCETOWN   SUNNY     72  63  73 MISG      30.04R
NANTUCKET      SUNNY     72  56  57 E10       30.02S
$$

ANZ330-335-338-340-345-350-353-355-201700-
COASTAL MARINE OBSERVATIONS


STATION/POSITION TIME  SKY/WX   TEMP    WIND        PRES    VSBY  WAVE
                                AIR SEA DIR/SP/G                  HT/PER
                 (UTC)          (F)     (DEG/KT/KT) (MB)    (MI)  (FT/S)
NY HARB ENTRANCE NOT AVBL
4S FIRE IS       NOT AVBL
23SW MTP         1600            69 70              1016.4          1/ 8
HUDSON CANYON    1600            72 73   40/ 12/ 14 1015.9          3/ 6
EXECUTION ROCKS  1600            77 74   70/  6/  8   N/A
WESTERN LI SOUND 1600            72      50/  6/  8   N/A           0
CENTRAL LI SOUND 1500            67 73   60/  2/  4   N/A           0
EASTERN LI SOUND 1500            70 71  210/  4/  6   N/A
ROBBINS REEF     1600            72     160/ 12/ 13   N/A
$$


>>>>>>>>>>>>>>>>>>>>>>>>>>>> KEY <<<<<<<<<<<<<<<<<<<<<<<<<<<
>                                                          <
>     SKY/WX - SKY CONDITION/PRESENT WEATHER               <
>     TMP    - TEMPERATURE IN FAHRENHEIT                   <
>     DP     - DEWPOINT IN FAHRENHEIT                      <
>     RH     - RELATIVE HUMIDITY IN PERCENT                <
>     WIND   - DIRECTION AND SPEED IN MPH                  <
>     PRES   - MEAN SEA LEVEL PRESSURE IN INCHES OF HG     <
>     WCI    - WIND CHILL INDEX                            <
>     VSB    - VISIBILITY IN MILES                         <
>     HX     - HEAT INDEX                                  <
>     TC     - TEMPERATURE IN CELSIUS                      <
>     VRB    - VARIABLE WIND DIRECTION                     <
>                                                          <
>>>>>>>>>>>>>>>>>>>>>>>>>>>> KEY <<<<<<<<<<<<<<<<<<<<<<<<<<<




USA.gov is the U.S. government's official web portal to all federal, state and local government web resources and services.